Wind_Speed
40 43 42 46 50 52 53 51 48 50 42 43 63 74 70 57 39 51 48 52 42 36 35 33 34 29 31 22 27 26 24 25 27 30 26 26 26 28 26 24 19 21 21
40 43 44 44 46 46 49 53 52 51 47 43 40 49 59 67 71 43 34 35 44 34 33 28 33 31 30 25 27 26 22 24 28 30 26 25 26 28 26 26 23 23 25
40 40 43 45 46 46 48 49 50 51 50 50 47 43 43 54 52 53 48 39 36 31 38 33 34 39 30 27 26 26 23 24 28 30 26 23 26 28 30 28 26 27 28
45 45 42 46 47 50 52 53 51 50 51 51 51 47 46 42 43 44 46 44 40 37 38 40 37 36 32 26 25 27 24 24 27 29 24 24 29 29 32 30 29 31 29
50 52 52 50 51 51 52 57 57 54 53 53 52 51 47 45 45 48 44 46 45 44 47 41 38 36 33 28 26 28 23 26 28 26 24 27 31 32 33 32 29 28 28
50 53 57 56 58 55 50 56 61 60 59 56 55 54 51 48 41 51 49 49 50 46 48 47 42 39 29 31 28 28 24 24 26 24 26 29 31 30 33 30 27 29 27
51 52 54 56 56 57 56 54 56 63 65 62 58 56 53 49 44 43 44 50 45 50 52 48 41 35 31 31 30 25 21 25 22 23 26 31 28 29 28 27 27 27 26
60 52 49 53 56 55 56 58 57 59 65 68 63 59 54 51 47 42 42 39 41 44 46 45 39 37 30 31 28 21 23 22 21 22 27 27 27 25 24 27 27 25 23
53 52 52 52 54 57 59 55 53 54 60 70 69 63 56 52 48 48 46 43 40 40 41 41 44 35 28 27 23 21 19 20 21 22 26 23 23 20 22 22 22 20 20
49 54 56 59 59 60 63 60 51 52 57 63 73 64 58 53 50 47 45 45 43 44 39 38 28 24 26 24 22 16 17 20 21 22 23 21 19 17 20 16 16 14 14
49 52 55 57 58 60 61 61 53 51 57 61 73 69 61 52 52 51 47 46 42 40 37 30 26 21 25 19 16 15 19 21 20 22 20 20 17 15 17 16 13 10 5
51 57 63 66 66 62 57 54 46 44 54 56 75 73 62 54 55 52 49 44 44 38 31 32 23 25 23 17 17 17 21 20 21 21 18 17 16 14 15 17 15 10 8
57 59 56 49 50 49 45 41 42 52 47 52 77 74 61 58 56 54 52 45 42 37 32 24 24 25 20 17 16 19 19 20 20 18 16 16 15 14 14 16 15 14 11
35 36 41 42 41 46 53 53 42 42 41 48 81 68 60 57 58 55 50 47 46 40 30 24 26 22 19 18 19 19 19 21 20 15 16 15 15 14 15 14 14 16 14
27 28 20 29 32 39 39 53 32 42 45 63 75 62 55 57 55 52 48 46 44 33 25 26 24 21 20 19 19 20 21 21 17 14 16 16 15 14 13 11 12 12 14
16 13 5 10 13 16 33 37 37 45 60 68 63 56 53 50 49 45 42 40 37 27 23 22 20 20 20 19 21 22 21 17 14 14 17 16 15 14 11 13 14 13 12
29 30 30 30 26 28 35 39 54 70 70 63 58 57 53 48 47 40 33 29 27 24 21 20 21 21 21 22 22 20 17 14 14 15 17 15 15 13 12 12 13 12 14
23 33 37 39 42 47 55 64 68 66 65 65 62 56 51 48 45 38 35 29 22 21 22 21 20 21 22 21 19 17 15 15 15 16 16 16 14 11 11 11 11 11 10
24 27 35 39 42 46 50 54 59 60 59 54 52 54 46 42 37 33 28 24 24 23 20 19 20 21 20 18 16 14 14 16 16 16 16 16 14 12 10 9 9 8 6
23 23 26 31 28 34 39 39 44 48 54 53 48 43 37 33 30 27 25 24 22 22 22 19 18 18 16 14 13 14 16 15 16 17 15 13 14 12 10 9 8 6 7
31 31 32 37 36 36 27 40 47 43 40 37 34 32 31 28 27 27 26 24 19 15 15 16 14 12 14 15 15 15 15 16 17 15 15 14 14 12 10 9 9 9 9
32 27 29 31 32 32 30 34 37 34 33 32 31 28 26 27 26 22 17 15 16 17 15 12 11 11 11 12 13 13 14 16 15 12 12 12 11 10 9 9 9 9 10
25 23 25 26 26 25 26 26 25 24 23 22 24 25 24 22 18 17 17 17 15 14 12 11 10 9 9 11 14 14 15 14 11 11 10 9 8 7 7 8 9 10 10
25 20 23 25 24 25 21 19 21 20 22 27 27 25 22 20 18 16 14 13 12 13 14 14 15 14 13 12 13 15 13 12 10 8 7 7 7 7 8 9 9 9 9
22 20 24 23 23 22 19 19 19 27 26 25 23 20 18 17 15 13 13 14 15 15 16 17 17 16 14 14 12 11 10 10 9 7 7 7 8 8 6 5 7 9 11
20 19 22 26 27 23 25 28 26 24 22 19 18 16 15 14 14 14 14 15 15 16 17 17 17 16 16 15 13 11 11 10 9 8 7 7 6 6 7 7 9 10 10
Wind_Direction
253 254 250 252 249 247 248 246 247 254 252 249 253 251 236 244 243 237 240 240 229 252 254 264 283 284 273 280 294 301 306 309 307 309 309 312 318 315 314 309 303 301 301
261 256 255 250 253 254 251 249 244 247 249 250 250 246 248 252 243 235 224 233 236 249 256 258 272 276 274 287 295 299 306 301 302 305 302 309 309 311 311 304 299 297 294
268 264 259 253 251 250 253 253 253 247 248 245 243 244 233 241 245 243 244 238 234 242 230 243 263 268 271 282 288 293 297 292 297 297 300 307 303 310 311 300 296 293 290
270 267 266 264 255 248 247 246 247 248 247 245 246 242 239 237 240 241 236 229 226 226 241 257 254 265 266 273 273 281 285 290 293 293 300 308 304 308 307 299 295 291 287
271 274 271 273 265 253 245 245 244 241 243 244 241 242 239 238 232 229 223 215 222 233 250 242 249 257 263 267 269 274 280 288 295 289 310 308 305 308 303 298 293 285 282
276 281 277 268 265 257 249 243 241 238 237 237 236 237 235 236 231 226 230 226 226 233 236 240 250 245 254 262 269 270 277 283 280 295 307 303 301 303 301 297 287 283 280
275 275 270 267 259 255 255 248 242 238 235 231 233 232 232 229 226 225 229 227 225 232 236 238 239 241 255 256 262 266 272 276 282 304 301 297 303 306 302 299 293 287 280
277 273 270 266 262 259 256 254 248 241 235 230 227 228 226 224 221 216 221 217 219 226 227 227 229 238 246 252 255 263 270 271 293 297 293 297 304 304 302 300 302 289 275
270 271 269 263 261 261 260 256 252 245 240 228 223 222 220 218 214 209 215 218 224 225 220 223 229 226 232 243 246 255 262 271 288 290 291 300 302 305 306 305 304 287 273
271 269 267 267 265 260 259 257 251 243 239 229 216 216 215 212 208 205 210 216 218 211 216 225 222 217 234 235 243 250 260 277 286 287 288 299 298 308 306 299 308 307 277
277 270 266 264 263 262 262 259 252 236 230 227 211 210 209 205 202 201 205 211 209 210 214 216 210 217 234 241 253 255 262 276 282 283 289 299 295 305 302 289 294 299 309
274 271 267 264 264 263 258 256 251 237 225 222 201 202 201 198 198 195 202 205 208 208 211 208 198 219 227 236 243 251 264 272 273 279 287 294 288 293 301 281 282 280 287
276 282 282 273 263 250 241 235 238 236 224 210 192 195 190 194 192 192 199 203 205 203 201 197 210 222 228 234 242 253 262 264 266 275 287 289 280 284 298 279 272 269 277
291 279 280 274 263 250 241 222 223 226 210 202 183 183 186 187 189 192 197 202 203 200 190 198 216 222 229 235 242 254 259 258 265 275 283 283 273 277 292 291 280 269 267
287 292 276 274 273 252 219 214 207 202 192 184 176 175 179 184 188 193 196 205 203 179 189 207 214 220 226 231 244 253 253 255 264 275 280 275 269 269 283 299 292 284 265
8 2 31 33 55 137 169 191 185 179 174 167 162 167 174 182 189 193 197 197 181 181 197 205 213 221 226 234 246 247 246 258 273 271 276 269 265 264 273 285 298 289 277
66 58 68 84 90 107 125 142 153 155 154 153 158 165 173 181 183 188 175 178 185 188 195 204 213 219 226 240 241 244 251 267 271 264 270 260 257 258 266 281 294 292 282
77 85 96 100 108 120 131 140 144 147 151 157 161 165 169 175 175 170 181 183 182 188 198 205 209 225 235 238 244 251 258 261 256 260 261 252 251 256 262 278 294 297 287
108 106 107 110 119 127 130 138 144 150 152 158 165 160 152 156 168 172 172 177 184 196 197 210 223 232 237 244 250 256 253 249 246 256 253 247 243 250 256 272 288 293 286
116 124 122 132 131 137 141 146 152 153 147 144 143 148 154 157 162 169 174 178 187 194 207 218 228 236 244 252 252 241 238 241 245 255 250 242 237 242 242 256 267 281 276
119 104 88 99 106 155 117 124 116 119 125 136 140 146 155 162 166 166 175 184 196 208 216 224 232 252 261 251 231 227 231 239 241 247 240 238 234 243 241 249 256 263 264
117 119 115 110 108 115 120 121 130 131 137 146 153 156 158 162 166 169 177 192 202 207 214 223 236 252 243 222 217 219 229 234 242 238 237 235 238 240 244 256 261 266 269
130 133 128 124 123 126 129 126 134 141 144 145 146 150 155 159 170 184 192 195 201 206 215 232 235 227 216 214 220 217 220 226 225 230 225 219 224 232 246 259 266 269 277
141 144 142 138 138 137 138 140 143 148 156 159 160 163 167 174 180 186 193 200 205 212 224 230 216 209 213 209 209 202 208 216 215 210 203 212 228 240 255 265 274 282 286
142 160 152 147 146 145 147 153 156 161 161 162 165 167 170 177 186 190 194 202 213 222 222 216 210 207 202 198 200 197 203 207 210 213 216 225 243 253 260 264 283 287 291
158 161 165 152 150 151 151 154 155 155 154 157 165 172 177 179 184 193 202 207 207 199 197 195 190 181 191 192 198 204 209 208 206 216 227 225 220 225 242 263 293 293 287
Height
5663 5665 5670 5669 5673 5678 5683 5687 5691 5692 5695 5699 5705 5713 5724 5733 5741 5745 5753 5763 5765 5772 5779 5783 5784 5786 5785 5784 5782 5780 5780 5776 5776 5776 5772 5770 5766 5766 5762 5758 5757 5756 5755
5651 5653 5656 5659 5661 5663 5666 5673 5677 5681 5684 5688 5694 5700 5708 5716 5728 5737 5743 5751 5754 5755 5763 5771 5777 5777 5773 5776 5774 5772 5770 5770 5771 5769 5768 5764 5761 5760 5757 5753 5752 5750 5748
5638 5641 5643 5646 5649 5654 5653 5656 5659 5666 5671 5678 5684 5690 5695 5704 5713 5721 5730 5741 5748 5751 5754 5761 5765 5767 5766 5768 5766 5765 5763 5765 5765 5763 5762 5758 5756 5753 5750 5748 5745 5744 5742
5625 5626 5628 5631 5635 5638 5640 5643 5648 5651 5656 5662 5668 5677 5685 5692 5697 5707 5718 5728 5737 5743 5748 5754 5753 5757 5758 5760 5759 5759 5756 5756 5757 5756 5755 5751 5749 5745 5743 5741 5738 5736 5734
5612 5610 5612 5615 5616 5620 5624 5629 5633 5636 5643 5648 5656 5663 5671 5679 5685 5696 5707 5716 5725 5731 5737 5742 5746 5747 5747 5751 5751 5751 5750 5748 5747 5748 5745 5743 5741 5736 5735 5733 5730 5727 5725
5595 5595 5595 5594 5597 5602 5608 5613 5617 5624 5630 5637 5644 5652 5661 5669 5676 5685 5694 5704 5710 5717 5723 5731 5736 5736 5741 5743 5742 5743 5739 5741 5742 5739 5737 5736 5734 5729 5727 5725 5722 5718 5717
5578 5579 5578 5576 5576 5581 5585 5592 5599 5606 5611 5622 5631 5639 5650 5658 5667 5675 5683 5690 5697 5706 5710 5718 5724 5726 5729 5733 5735 5734 5732 5734 5735 5731 5731 5730 5726 5722 5720 5717 5714 5711 5708
5560 5559 5560 5560 5560 5562 5564 5570 5578 5586 5593 5601 5614 5624 5637 5647 5658 5667 5673 5679 5686 5692 5699 5705 5711 5714 5722 5724 5726 5723 5726 5728 5725 5725 5725 5722 5718 5715 5713 5710 5706 5703 5701
5543 5543 5543 5543 5543 5543 5543 5549 5557 5563 5571 5581 5594 5610 5623 5635 5647 5656 5664 5670 5677 5685 5687 5695 5699 5705 5710 5716 5717 5718 5721 5719 5719 5719 5718 5715 5712 5709 5707 5704 5700 5697 5696
5529 5526 5524 5523 5522 5523 5525 5529 5536 5542 5548 5558 5576 5594 5608 5624 5636 5644 5653 5663 5671 5676 5682 5687 5691 5697 5703 5707 5710 5711 5712 5712 5713 5712 5712 5708 5705 5704 5702 5700 5697 5693 5691
5509 5506 5504 5502 5502 5503 5504 5506 5511 5520 5529 5540 5559 5577 5594 5612 5623 5634 5645 5656 5664 5668 5673 5678 5684 5690 5697 5701 5702 5703 5705 5706 5705 5706 5704 5701 5699 5699 5698 5696 5695 5692 5689
5488 5483 5479 5475 5474 5475 5479 5484 5490 5497 5507 5521 5539 5561 5582 5601 5614 5626 5638 5647 5655 5660 5665 5672 5676 5685 5690 5694 5696 5699 5701 5700 5700 5700 5697 5695 5695 5695 5694 5693 5691 5690 5689
5468 5462 5455 5449 5446 5448 5455 5465 5471 5479 5491 5506 5524 5548 5573 5591 5606 5619 5629 5639 5647 5652 5659 5665 5673 5680 5684 5686 5690 5694 5694 5695 5694 5693 5690 5690 5691 5691 5691 5689 5688 5687 5687
5456 5447 5437 5430 5426 5426 5431 5444 5454 5466 5481 5496 5517 5545 5566 5584 5600 5610 5621 5632 5637 5646 5652 5660 5668 5674 5677 5681 5684 5686 5688 5689 5688 5686 5684 5686 5687 5687 5687 5685 5683 5683 5682
5447 5435 5425 5417 5403 5395 5405 5427 5447 5463 5478 5494 5519 5546 5568 5585 5597 5607 5617 5626 5631 5638 5649 5655 5663 5669 5672 5675 5678 5680 5682 5682 5681 5679 5680 5682 5683 5683 5683 5681 5680 5678 5678
5444 5432 5421 5411 5400 5392 5402 5422 5439 5459 5478 5502 5526 5549 5568 5584 5596 5607 5615 5621 5631 5633 5644 5652 5658 5663 5666 5669 5672 5675 5677 5674 5673 5674 5676 5677 5679 5679 5678 5678 5676 5674 5674
5448 5435 5429 5420 5416 5416 5421 5435 5452 5471 5492 5514 5534 5550 5566 5583 5594 5604 5611 5619 5627 5637 5643 5648 5653 5657 5661 5664 5667 5669 5668 5666 5668 5670 5672 5673 5674 5674 5674 5673 5672 5670 5669
5462 5457 5453 5448 5444 5443 5448 5460 5476 5491 5504 5518 5534 5551 5565 5579 5591 5602 5610 5618 5626 5634 5639 5643 5648 5653 5655 5659 5661 5660 5659 5661 5664 5667 5668 5669 5669 5669 5670 5670 5668 5667 5665
5474 5473 5474 5474 5474 5479 5486 5490 5493 5506 5519 5533 5543 5554 5567 5579 5589 5601 5610 5618 5624 5630 5635 5640 5644 5647 5650 5652 5652 5652 5654 5656 5660 5663 5664 5665 5665 5665 5665 5666 5665 5664 5663
5483 5484 5485 5489 5491 5497 5502 5506 5510 5508 5530 5542 5552 5564 5574 5584 5594 5603 5611 5618 5623 5628 5632 5635 5638 5642 5642 5643 5645 5648 5650 5653 5657 5659 5659 5660 5660 5661 5662 5662 5663 5662 5661
5484 5494 5499 5500 5500 5508 5514 5516 5520 5531 5543 5554 5562 5571 5580 5589 5596 5604 5610 5615 5619 5623 5627 5632 5633 5633 5635 5637 5641 5644 5647 5651 5654 5655 5655 5655 5656 5657 5658 5659 5660 5660 5660
5503 5505 5509 5514 5516 5521 5526 5531 5540 5545 5552 5561 5567 5575 5583 5590 5597 5604 5608 5612 5617 5621 5623 5624 5626 5628 5631 5635 5639 5643 5646 5648 5650 5650 5651 5652 5653 5654 5655 5656 5657 5657 5656
5512 5514 5518 5521 5525 5531 5536 5540 5546 5552 5559 5566 5574 5581 5586 5590 5595 5600 5605 5609 5612 5615 5617 5620 5624 5627 5630 5634 5637 5640 5643 5644 5646 5647 5648 5649 5650 5651 5652 5653 5653 5653 5653
5519 5522 5527 5532 5536 5540 5543 5548 5553 5559 5565 5570 5575 5580 5585 5590 5595 5599 5602 5605 5608 5612 5616 5619 5622 5626 5629 5633 5635 5637 5639 5641 5643 5645 5646 5647 5648 5649 5650 5650 5650 5650 5650
5523 5529 5532 5536 5539 5544 5549 5553 5557 5561 5565 5571 5577 5581 5585 5589 5592 5595 5599 5603 5607 5611 5614 5617 5621 5624 5628 5631 5633 5635 5637 5639 5640 5642 5644 5645 5646 5647 5648 5648 5648 5648 5648
5528 5532 5535 5540 5543 5548 5552 5556 5561 5565 5569 5573 5577 5580 5584 5588 5592 5596 5600 5603 5606 5609 5612 5615 5619 5622 5626 5629 5631 5633 5634 5635 5637 5639 5640 5641 5643 5644 5645 5645 5645 5645 5644